Home > Weather > Zielona Góra > Past weeks

Flag for Poland Weather for the Past 2 Weeks in Zielona Góra, Poland

Now
50 °F

Overcast.


Feels Like: 47 °F
Forecast: 42 / 47 °F
Wind: 6 mph from Southwest

Location: Zielona Gora

Current Time: Feb 8, 2016 at 8:32:16 PM

Latest Report: Feb 8, 2016 at 7:00 PM


Visibility: 31 mi

Pressure: 29.41 "Hg

Humidity: 60%

Dew point: 36 °F

Location of Zielona GóraLocation

Historic Weather in Zielona Góra — Graph

°F

Zielona Góra Temperature Yesterday

Maximum temperature yesterday: 50 °F (at 2:00 PM)
Minimum temperature yesterday: 36 °F (at 7:00 AM)
Average temperature yesterday: 42 °F

High & Low Weather Summary for the Past Weeks

 TemperatureHumidityPressure
High53 °F (Jan 28, 7:00 AM)100% (Jan 25, 8:00 AM)30.42 "Hg (Jan 25, 8:00 AM)
Low31 °F (Jan 29, 4:00 AM)50% (Jan 28, 3:00 PM)29.41 "Hg (Feb 8, 7:00 PM)
Average43 °F79%29.99 "Hg
* Reported Jan 24 7:00 PM — Feb 8 7:00 PM, Zielona Góra, Weather by CustomWeather, © 2016

Note: Actual official high and low records may vary slightly from our data, if they occured in-between our weather recording intervals... More about our weather records

Advertising

Zielona Góra Weather History for the Previous 24 Hours

 ConditionsComfort  
Time TempWeatherWind HumidityBarometerVisibility
7:00 PM
Mon, Feb 8
50 °FOvercast.6 mph60%29.41 "Hg31 mi
6:00 PM47 °FSprinkles. Overcast.5 mph71%29.44 "Hg31 mi
5:00 PM48 °FSprinkles. Overcast.7 mph68%29.44 "Hg12 mi
4:00 PM51 °FOvercast.7 mph50%29.44 "Hg31 mi
3:00 PM51 °FOvercast.7 mph51%29.44 "Hg31 mi
2:00 PM49 °FOvercast.7 mph55%29.47 "Hg31 mi
1:00 PM49 °FOvercast.8 mph55%29.54 "Hg31 mi
12:00 PM48 °FOvercast.8 mph54%29.55 "Hg28 mi
11:00 AM48 °FPartly sunny.9 mph56%29.58 "Hg28 mi
10:00 AM46 °FPassing clouds.7 mph62%29.62 "Hg31 mi
9:00 AM43 °FPassing clouds.7 mph72%29.65 "Hg31 mi
8:00 AM41 °FScattered clouds.6 mph77%29.68 "Hg16 mi
7:00 AM41 °FOvercast.7 mph77%29.70 "Hg16 mi
6:00 AM40 °FOvercast.5 mph79%29.72 "Hg16 mi
5:00 AM41 °FOvercast.5 mph78%29.73 "Hg16 mi
3:00 AM43 °FOvercast.3 mph76%29.75 "Hg19 mi
2:00 AM44 °FOvercast.3 mph75%29.75 "Hg19 mi
9:00 PM
Sun, Feb 7
42 °FOvercast.6 mph71%29.70 "Hg12 mi
8:00 PM41 °FOvercast.5 mph72%29.68 "Hg9 mi
Weather by CustomWeather, © 2016

See weather overviewHow to use our weather pages